Location: Columbia
(38.9520°N, 92.3340°W)
Time: 21:14:28
(UTC-05:00)

FENGYUN 3A - Visible Passes

Search period start: 02 September 2014 00:00
Search period end: 12 September 2014 00:00
Orbit: 820 x 834 km, 98.5° (Epoch: 07 September)

Date Brightness Start Highest point End Pass type
(mag) Time Alt. Az. Time Alt. Az. Time Alt. Az.
02 Sep 4.2 21:18:57 34° E 21:20:03 37° ENE 21:24:57 10° N visible
02 Sep 5.3 23:00:28 26° W 23:00:28 26° W 23:04:47 10° NW visible
03 Sep 4.7 21:00:08 23° E 21:01:30 26° ENE 21:05:51 10° NNE visible
03 Sep 4.7 22:41:38 39° W 22:41:38 39° W 22:46:31 10° NNW visible
04 Sep 5.2 20:41:18 16° E 20:43:00 18° ENE 20:46:31 10° NNE visible
04 Sep 4.0 22:22:49 58° W 22:22:49 58° W 22:28:02 10° NNW visible
05 Sep 5.5 20:22:29 10° E 20:24:33 12° ENE 20:26:37 10° NE visible
05 Sep 3.5 22:04:00 86° WSW 22:04:00 86° WSW 22:09:24 10° NNW visible
06 Sep 3.6 21:45:10 64° E 21:45:19 64° ENE 21:50:39 10° N visible
06 Sep 6.1 23:26:41 15° W 23:26:41 15° W 23:28:57 10° WNW visible
07 Sep 4.0 21:26:21 43° E 21:26:42 43° ENE 21:31:45 10° N visible
07 Sep 5.7 23:07:52 22° W 23:07:52 22° W 23:11:14 10° NW visible
08 Sep 4.5 21:07:32 29° E 21:08:07 30° ENE 21:12:44 10° N visible
08 Sep 5.1 22:49:03 32° WNW 22:49:03 32° WNW 22:53:04 10° NNW visible
09 Sep 5.0 20:48:43 20° ENE 20:49:36 21° ENE 20:53:30 10° NNE visible
09 Sep 4.5 22:30:14 46° WNW 22:30:14 46° WNW 22:34:40 10° NNW visible
10 Sep 5.4 20:29:54 13° ENE 20:31:08 14° ENE 20:33:54 10° NNE visible
10 Sep 3.9 22:11:25 64° NW 22:11:25 64° NW 22:16:05 10° NNW visible
11 Sep 3.7 21:52:36 67° NNE 21:52:36 67° NNE 21:57:23 10° N visible
11 Sep 6.4 23:34:07 12° WNW 23:34:07 12° WNW 23:34:59 10° WNW visible
